Content
SEND FEEDBACK

Daily
Averages
Monthly
Summary
United States of America

TAMUNING, GUAM


Home > North America > United States > Guam
Elevation: 76 meters     Latitude: 13 29N     Longitude: 144 47E

WEATHER
 
SELECT A DAY
Number of Records: 342,579;   Date Range: 1/1/95 - 9/18/14
 
SHARE

PRINT THIS DATA

[ ← Previous Day ]
WEATHER ALMANAC - 7 JANUARY, 2013
[ Next Day → ]
[ °F ]   °C
Weather ElementAverageHighLow
Temperature25.7 °C28 °C (2:30 pm)22 °C (10:41 am)
Dewpoint22.6 °C24 °C (12:50 pm)20 °C (10:41 am)
Humidity83 %94 % (12:50 pm)69 % (9:55 am)
Barometer1009.5 hPa1011.5 hPa (9:55 am)1007.8 hPa (3:27 pm)
Wind Speed28.8 km/h48.1 km/h (10:34 pm)
Wind Gust55.5 km/h (10:30 pm)
Weather ElementAverage
Visibility13.2 km
Wind DirectionENE (60.5 °)

Weather ElementTotal
Precipitation3.56 mm
Cooling Degree Days6.7 (Base 18.3)
Growing Degree Days15 (Base 10)
Averaged from 76 records on 7 January, 2013
WEATHER CONDITIONS BREAKOUT
WIND DIRECTION BREAKOUT
WEATHER BY HOUR - 7 JANUARY, 2013
[ °F ]   °C
Local TimeTemperatureDewpointHumidityBarometerVisibilityWind DirectionWind SpeedGust SpeedPrecipitationEventsConditions
12:31 AM25 °C22 °C83 %1009.5 hPa16.1 kmENE (60°)29.6 km/hMostly Cloudy
12:33 AM26 °C22 °C78 %1009.5 hPa16.1 kmENE (60°)29.6 km/hScattered Clouds
12:37 AM25 °C22 °C83 %1009.5 hPa16.1 kmENE (70°)25.9 km/hMostly Cloudy
12:48 AM26 °C23 °C83 %1009.5 hPa16.1 kmENE (60°)29.6 km/h42.6 km/hScattered Clouds
12:55 AM25.4 °C22.4 °C83 %1009.5 hPa16.1 kmENE (60°)27.8 km/h38.9 km/hMostly Cloudy
1:45 AM25 °C22 °C83 %1009.1 hPa16.1 kmENE (70°)37 km/h44.4 km/hMostly Cloudy
1:47 AM26 °C22 °C78 %1009.1 hPa16.1 kmENE (60°)31.5 km/h44.4 km/hScattered Clouds
1:55 AM25.2 °C22.3 °C84 %1009.1 hPa16.1 kmENE (60°)33.3 km/h44.4 km/hScattered Clouds
2:55 AM25 °C22.3 °C85 %1008.5 hPa16.1 kmENE (60°)25.9 km/h37 km/hMostly Cloudy
3:12 AM25 °C22 °C83 %1008.5 hPa16.1 kmENE (60°)24.1 km/hMostly Cloudy
3:45 AM25 °C22 °C83 %1008.5 hPa16.1 kmENE (70°)31.5 km/h44.4 km/hLight Drizzle
3:55 AM24.7 °C21.6 °C83 %1008.5 hPa16.1 kmENE (70°)33.3 km/h44.4 km/h0 mmRainLight Rain
3:58 AM25 °C21 °C78 %1008.5 hPa16.1 kmENE (70°)33.3 km/hMostly Cloudy
4:04 AM25 °C21 °C78 %1008.8 hPa16.1 kmEast (80°)33.3 km/h42.6 km/hMostly Cloudy
4:55 AM25.3 °C20.9 °C76 %1009.1 hPa16.1 kmENE (70°)27.8 km/h0 mmClear
5:55 AM25.4 °C21.1 °C77 %1009.5 hPa16.1 kmENE (70°)29.6 km/hScattered Clouds
6:55 AM25 °C20.3 °C75 %1010.2 hPa16.1 kmEast (80°)25.9 km/hClear
7:55 AM26.2 °C21.2 °C74 %1010.8 hPa16.1 kmENE (60°)25.9 km/hClear
9:55 AM27.7 °C21.6 °C69 %1011.5 hPa16.1 kmENE (60°)24.1 km/hPartly Cloudy
10:41 AM22 °C20 °C88 %1011.5 hPa14.5 kmEast (80°)29.6 km/h40.7 km/hMostly Cloudy
10:48 AM24 °C21 °C83 %1011.5 hPa14.5 kmEast (80°)22.2 km/h40.7 km/hMostly Cloudy
10:55 AM26.4 °C22.5 °C79 %1011.2 hPa16.1 kmENE (70°)24.1 km/hMostly Cloudy
11:55 AM26.7 °C22.8 °C79 %1010.2 hPa16.1 kmENE (60°)24.1 km/hScattered Clouds
12:26 PM25 °C22 °C83 %1010.2 hPa3.2 kmENE (70°)40.7 km/h50.1 km/hRainRain
12:27 PM25 °C22 °C83 %1010.2 hPa2.4 kmEast (80°)38.9 km/h50.1 km/hRainRain
12:29 PM25 °C23 °C89 %1010.2 hPa1.9 kmEast (90°)31.5 km/h50.1 km/hRainRain
12:31 PM25 °C23 °C89 %1010.2 hPa1.6 kmEast (80°)29.6 km/h50.1 km/hRainRain
12:32 PM25 °C23 °C89 %1010.2 hPa1.6 kmEast (80°)29.6 km/h50.1 km/hRainLight Rain
12:33 PM25 °C23 °C89 %1010.2 hPa1.6 kmEast (80°)27.8 km/h50.1 km/hRainLight Rain
12:35 PM25 °C23 °C89 %1009.8 hPa1.9 kmEast (80°)24.1 km/h50.1 km/hRainLight Rain
12:36 PM25 °C23 °C89 %1009.8 hPa2.4 kmENE (70°)24.1 km/h50.1 km/hRainLight Rain
12:37 PM25 °C23 °C89 %1009.8 hPa3.2 kmENE (70°)24.1 km/hRainLight Rain
12:38 PM25 °C23 °C89 %1009.8 hPa4 kmENE (70°)20.4 km/hRainLight Rain
12:39 PM25 °C23 °C89 %1009.8 hPa4.8 kmENE (60°)20.4 km/hRainLight Rain
12:44 PM25 °C23 °C89 %1009.8 hPa12.9 kmENE (60°)22.2 km/hOvercast
12:46 PM25 °C23 °C89 %1009.8 hPa16.1 kmENE (70°)22.2 km/hOvercast
12:49 PM25 °C23 °C89 %1009.5 hPa16.1 kmENE (70°)20.4 km/hOvercast
12:50 PM25 °C24 °C94 %1009.5 hPa16.1 kmENE (60°)22.2 km/hOvercast
12:55 PM25.8 °C23.9 °C89 %1009.5 hPa16.1 kmENE (60°)24.1 km/h1.52 mmMostly Cloudy
1:55 PM27.9 °C23.4 °C76 %1008.5 hPa16.1 kmENE (60°)27.8 km/hPartly Cloudy
2:30 PM28 °C23 °C74 %1008.1 hPa16.1 kmNE (50°)29.6 km/hMostly Cloudy
2:34 PM28 °C23 °C74 %1008.1 hPa16.1 kmNE (50°)31.5 km/hScattered Clouds
2:35 PM28 °C23 °C74 %1008.1 hPa16.1 kmNE (50°)27.8 km/hMostly Cloudy
2:42 PM28 °C23 °C74 %1008.1 hPa16.1 kmNE (50°)31.5 km/hScattered Clouds
2:55 PM28 °C23 °C74 %1008.1 hPa16.1 kmENE (60°)29.6 km/hScattered Clouds
3:27 PM28 °C23 °C74 %1007.8 hPa16.1 kmNE (50°)22.2 km/hMostly Cloudy
3:55 PM28 °C23.2 °C75 %1008.1 hPa16.1 kmNE (50°)31.5 km/hMostly Cloudy
4:05 PM27 °C23 °C79 %1008.1 hPa16.1 kmNE (50°)27.8 km/hMostly Cloudy
4:55 PM27.4 °C22.5 °C74 %1008.5 hPa16.1 kmNE (50°)31.5 km/hScattered Clouds
5:12 PM27 °C23 °C79 %1008.5 hPa16.1 kmNE (50°)25.9 km/hMostly Cloudy
5:25 PM27 °C23 °C79 %1008.8 hPa16.1 kmNE (50°)25.9 km/hMostly Cloudy
5:29 PM27 °C23 °C79 %1008.8 hPa16.1 kmNE (50°)31.5 km/hMostly Cloudy
5:34 PM27 °C23 °C79 %1008.8 hPa16.1 kmNE (50°)25.9 km/hMostly Cloudy
5:55 PM26.6 °C23 °C80 %1009.1 hPa16.1 kmNE (40°)27.8 km/hScattered Clouds
6:46 PM26 °C22 °C78 %1009.5 hPa16.1 kmNE (50°)27.8 km/h38.9 km/hRainLight Rain
6:55 PM26 °C22 °C78 %1009.5 hPa16.1 kmNE (50°)27.8 km/h0 mmScattered Clouds
7:55 PM26.2 °C22 °C78 %1009.8 hPa16.1 kmNE (50°)29.6 km/hMostly Cloudy
8:55 PM26.3 °C22.1 °C78 %1009.8 hPa16.1 kmNE (40°)33.3 km/hOvercast
9:55 PM26.4 °C22.4 °C79 %1010.2 hPa16.1 kmNE (40°)33.3 km/hOvercast
10:03 PM26 °C22 °C78 %1010.2 hPa16.1 kmNE (50°)27.8 km/hLight Drizzle
10:12 PM26 °C23 °C83 %1010.2 hPa16.1 kmNE (40°)29.6 km/hMostly Cloudy
10:15 PM26 °C23 °C83 %1010.5 hPa16.1 kmNE (40°)35.2 km/h44.4 km/hOvercast
10:21 PM26 °C23 °C83 %1010.2 hPa16.1 kmNE (40°)33.3 km/h44.4 km/hLight Drizzle
10:30 PM26 °C23 °C83 %1010.5 hPa16.1 kmENE (70°)35.2 km/h55.5 km/hOvercast
10:34 PM26 °C23 °C83 %1010.5 hPa8 kmENE (70°)48.1 km/h55.5 km/hRainLight Rain
10:40 PM24 °C23 °C94 %1010.8 hPa4 kmENE (70°)33.3 km/h55.5 km/hRainRain
10:41 PM24 °C23 °C94 %1010.8 hPa3.2 kmENE (70°)29.6 km/h53.8 km/hRainRain
10:43 PM24 °C23 °C94 %1010.8 hPa4 kmENE (70°)29.6 km/hRainLight Rain
10:49 PM24 °C23 °C94 %1010.5 hPa4.8 kmENE (70°)25.9 km/hRainRain
10:55 PM24.1 °C23.1 °C94 %1010.5 hPa11.3 kmENE (60°)27.8 km/h38.9 km/h1.78 mmRainLight Rain
10:57 PM24 °C23 °C94 %1010.5 hPa14.5 kmENE (60°)27.8 km/h38.9 km/hOvercast
11:07 PM24 °C23 °C94 %1010.2 hPa16.1 kmNE (50°)24.1 km/hMostly Cloudy
11:26 PM25 °C23 °C89 %1010.2 hPa16.1 kmNE (40°)25.9 km/hMostly Cloudy
11:33 PM25 °C23 °C89 %1010.2 hPa16.1 kmNE (40°)33.3 km/h48.1 km/hRainLight Rain
11:50 PM24 °C23 °C94 %1009.8 hPa16.1 kmNE (40°)31.5 km/hMostly Cloudy
11:55 PM24.5 °C23 °C91 %1010.2 hPa16.1 kmNE (40°)27.8 km/h0.25 mmMostly Cloudy
Hourly data recorded from PGUA, located 0 kilometers away from Tamuning, Guam







STORIES FROM OUR PARTNERS